LSGGLSGS

Guest
Details From LSGG - Geneva
To LSGS - Sion
Flight Number -
Tags generated
Created
Modified
Stats Distance 51 nm / 94 km
Max Altitude 6,000 ft / 1,829 m
Waypoints 3
Social Downloads 3
Likes 0
Share VATSIM

Download

Looking for another format? Having issues loading an existing format? Contact us
Advertisement - Login to hide

Notes

Basic altitude profile: - Ascent Rate: 2500ft/min - Ascent Speed: 250kts - Cruise Altitude: 35000ft - Cruise Speed: 420kts - Descent Rate: 1500ft/min - Descent Speed: 250kts Options: - Use NATs: yes - Use PACOTS: yes - Use low airways: yes - Use high airways: yes

Route

LSGG SPR16 LSGS

ID Type Via Altitude Latitude Longitude Leg Dist Tot Dist Heading (true) Name
O LSGG APT - 0 ft / 0 m 46.23775˚ 6.10617˚ - 0 nm - Geneva
SPR16 FIX - 6,000 ft / 1,829 m 46.22335˚ 6.51667˚ 17 nm 17 nm 93° / 93° -
O LSGS APT - 0 ft / 0 m 46.21895˚ 7.32409˚ 33 nm 50 nm 90° / 91° Sion

Altitude Profile

Advertisement - Login to hide

LSGG

Details ICAO LSGG (GVA)
Name Geneva
Region Switzerland
Timezone Europe/Zurich (UTC+1.0)
Stats Elevation 1,410 ft / 430 m (AMSL)
Location 46.237755° 6.106173°
Runways 2
Magnetic Variation 1.738° E

METAR

LSGG 152120Z 29004KT 270V340 9999 VCSH FEW025 BKN040 03/01 Q1002 NOSIG

Decode

TAF

TAF LSGG 152025Z 1521/1703 24014KT 9999 FEW025 BKN040 TX04/1615Z TN00/1606Z TEMPO 1521/1523 4500 SHRASN BKN010 BKN020TCU PROB30 TEMPO 1523/1606 2000 SN VV008 TEMPO 1612/1617 33015KT

Decode

Departure Runways

ID Width Length Bearing (true) Bearing (mag) Surface Threshold Offset Overrun Length
05 180 ft / 55 m 12,796 ft / 3,900 m 45.43° 43.69° Concrete 1,079 ft / 329 m 66 ft / 20 m
05L 98 ft / 30 m 2,701 ft / 823 m 45.44° 43.70° Grass 610 ft / 186 m 0 ft / 0 m
23 180 ft / 55 m 12,796 ft / 3,900 m 225.45° 223.71° Concrete 0 ft / 0 m 66 ft / 20 m
23R 98 ft / 30 m 2,701 ft / 823 m 225.45° 223.71° Grass 997 ft / 304 m 0 ft / 0 m

LSGS

Details ICAO LSGS (SIR)
Name Sion
Region Switzerland
Timezone Europe/Zurich (UTC+1.0)
Stats Elevation 1,585 ft / 483 m (AMSL)
Location 46.218954° 7.324090°
Runways 2
Magnetic Variation 2.043° E

METAR

LSGS 152120Z AUTO VRB03KT 9999 OVC080 00/M01 Q1002

Decode

TAF

Not found

Destination Runways

ID Width Length Bearing (true) Bearing (mag) Surface Threshold Offset Overrun Length
07L 98 ft / 30 m 2,167 ft / 661 m 72.83° 70.79° Grass 0 ft / 0 m 0 ft / 0 m
07R 131 ft / 40 m 6,605 ft / 2,013 m 72.84° 70.80° Asphalt 164 ft / 50 m 627 ft / 191 m
25L 131 ft / 40 m 6,605 ft / 2,013 m 252.86° 250.82° Asphalt 164 ft / 50 m 627 ft / 191 m
25R 98 ft / 30 m 2,167 ft / 661 m 252.83° 250.79° Grass 328 ft / 100 m 0 ft / 0 m

Approach Navaids

Runway Type Ident Frequency Range Bearing (true) Bearing (mag) Slope Elevation
25L Localiser ISI 110.70 MHz 45 nm / 83 km 246.48° 244.44° - 1,609 ft / 490 m (AMSL)
25L Glidescope ISI 110.70 MHz 45 nm / 83 km 246.48° 244.44° 6.00° 1,595 ft / 486 m (AMSL)
25L DME ISI 108.35 MHz 45 nm / 83 km - - - 1,609 ft / 490 m (AMSL)

Popular Alternatives